Location: Jasło
(49.7478°N, 21.4712°E)
Time: 22:15:14
(UTC+01:00)

ISS - Visible Passes

Search period start: 19 January 2018 00:00
Search period end: 29 January 2018 00:00
Orbit: 402 x 407 km, 51.6° (Epoch: 20 January)

Date Brightness Start Highest point End Pass type
(mag) Time Alt. Az. Time Alt. Az. Time Alt. Az.
25 Jan -1.3 18:12:50 10° S 18:13:26 12° SSE 18:13:26 12° SSE visible
26 Jan -1.2 18:55:18 10° SW 18:56:11 17° SW 18:56:11 17° SW visible
27 Jan -2.6 18:03:20 10° SSW 18:06:09 27° SE 18:06:11 27° SE visible
28 Jan -1.8 17:11:43 10° S 17:13:56 17° SE 17:16:06 10° E visible
28 Jan -2.3 18:46:44 10° WSW 18:48:46 35° SW 18:48:46 35° SW visible
